Powrót do katalogu

COSMOS 1275

AktywnyNawigacjaPO
NORAD 12504·PAYLOAD·🇷🇺 Russia

Wystrzelony Jun 4, 1981 z Plesetsk Cosmodrome

Loading…

Następne Przeloty (najbliższe 24 godziny)

TLE

ŚwieżeSource: Space-Track

Epoka: Sep 14, 2026, 13:33 UTC

1 12504U 81053A   26257.56484354  .00000044  00000-0  30955-4 0  9994
2 12504  82.9627 199.4618 0038369 290.7032  69.0013 13.74538283271551

Śledź COSMOS 1275 w czasie rzeczywistym z AllMySat

Download on the App Store